sat.trackr.live / text

‹ back to catalog

STARLINK-30773

NORAD 58161 · 2023-166M

PAYLOAD ACTIVE UNKNOWN

§ Identity

Operator
Country
US
Launch date
2023-10-29
Launch site
AFWTR
Launch vehicle
Mass (kg)
RCS (m²)

Purposes: comms

External: N2YO · Heavens-Above · Gunter

§ Orbital elements

Epoch: 2026-05-25T04:46:35.061024Z

Period
94.10 min
Inclination
53.1609°
Eccentricity
0.0001057
Mean motion
15.30205785 rev/d
Perigee alt
474.5 km
Apogee alt
475.9 km
Semi-major
6,853.3 km
B*
1.9820e-4
RAAN
224.1839°
Arg perigee
113.7056°
Mean anomaly
246.4056°
Rev number
14,489

§ Raw data

STARLINK-307731 58161U 23166M   26145.19901691  .00005516  00000+0  19820-3 0  99922 58161  53.1609 224.1839 0001057 113.7056 246.4056 15.30205785144891

JSON: /api/v1/satellites/58161 · /tle

For live sub-satellite position, see the globe view (requires WebGL).

§ Visibility from observer

Set your observer location to see the next 7 days of passes ≥ 10°. The values pass through the URL so the page stays shareable.

No JS? Fill the form by hand. The geolocation button needs JavaScript.